This is the latest recevied weather packets stored in our database for station/object K8DJB-1. If no packets are shown the sender has not sent any weather packets the latest 10 day(s).
| Time | Temp. | Humidity | Pressure | Rain* | Wind** | Luminosity | Snow |
|---|---|---|---|---|---|---|---|
| 1778056717 | 2.78° C | 81% | 1009.2 hPa | 0 mm | - | - | - |
| 1778056417 | 3.33° C | 81% | 1009.3 hPa | 0 mm | - | - | - |
| 1778056118 | 3.33° C | 80% | 1009.2 hPa | 0 mm | - | - | - |
| 1778055817 | 3.33° C | 80% | 1009.2 hPa | 0 mm | - | - | - |
| 1778055517 | 3.33° C | 80% | 1009.3 hPa | 0 mm | - | - | - |
| 1778055217 | 3.33° C | 80% | 1009.3 hPa | 0 mm | - | - | - |
| 1778054917 | 3.33° C | 80% | 1009.3 hPa | 0 mm | - | - | - |
| 1778054617 | 3.33° C | 80% | 1009.3 hPa | 0 mm | - | - | - |
| 1778054317 | 3.89° C | 79% | 1009.4 hPa | 0 mm | - | - | - |
| 1778054017 | 3.89° C | 79% | 1009.4 hPa | 0 mm | - | - | - |
| 1778053717 | 3.89° C | 78% | 1009.4 hPa | 0 mm | - | - | - |
| 1778053417 | 3.89° C | 76% | 1009.5 hPa | 0 mm | - | - | - |
| 1778052025 | 5° C | 72% | 1009.3 hPa | 0 mm | - | - | - |
| 1778051683 | 5° C | 72% | 1009.3 hPa | 0 mm | - | - | - |
| 1778051087 | 5.56° C | 71% | 1009.5 hPa | 0 mm | - | - | - |
| 1778050487 | 5.56° C | 70% | 1009.5 hPa | 0 mm | - | - | - |
| 1778050187 | 6.11° C | 70% | 1009.7 hPa | 0 mm | - | - | - |
| 1778049887 | 6.11° C | 69% | 1009.5 hPa | 0 mm | - | - | - |
| 1778049587 | 6.11° C | 68% | 1009.4 hPa | 0 mm | - | - | - |
| 1778049287 | 6.11° C | 68% | 1009.4 hPa | 0 mm | - | - | - |
| 1778048987 | 6.67° C | 68% | 1009.4 hPa | 0 mm | - | - | - |
| 1778048687 | 6.67° C | 68% | 1009.5 hPa | 0 mm | - | - | - |
| 1778048387 | 6.67° C | 65% | 1009.5 hPa | 0 mm | - | - | - |
| 1778048087 | 6.67° C | 65% | 1009.5 hPa | 0 mm | - | - | - |
| 1778047787 | 6.67° C | 65% | 1009.7 hPa | 0 mm | - | - | - |
* Rain latest hour (hover to see other rain measurements)
** Current wind speed in m/s (hover to see current wind gust speed)